User: anonymous
Location: Caltech
(34.1382°N, 118.1253°W)
Time: 00:30:13
(UTC-07:00)
Language:

Iridium 91 - Orbit

View from above orbital plane
View from above orbital plane
View from above satellite
View from above satellite

Ground track
Ground track

The orbit data is extracted from the following two-line orbital elements,

1 27372U 02005A   14105.80153794  .00000076  00000-0  20180-4 0  2863
2 27372 086.3999 051.8604 0003827 087.8922 329.6968 14.34214960645593
Epoch (UTC): 15 April 2014 19:14:12
Eccentricity: 0.0003827
inclination: 86.3999°
perigee height: 775 km
apogee height: 780 km
right ascension of ascending node: 51.8604°
argument of perigee: 87.8922°
revolutions per day: 14.34214960
mean anomaly at epoch: 329.6968°
orbit number at epoch: 64559

The dashed part of the orbit path shows where the satellite is in the earth's shadow,  

DLR